This demonstration page uses our WeatherBlox Daily Observations layout. Learn more.

Left ArrowRight Arrow

Hourly Observations for May 3, 2018

Temp ( °F °C ) Dew Point ( °F °C ) Humidity (%) Winds ( mph kmh ) Pressure ( in mb ) Visibility ( mi km ) Precip ( " mm )
12:53 am 00:53 Clear 49 9.4 35 1.7 59 59 SW 13 20 29.83 1010 10 16 N/A
1:53 am 01:53 Clear 50 10 34 1.1 54 54 SW 13 20 29.83 1010 10 16 N/A
2:53 am 02:53 Clear 50 10 34 1.1 54 54 SSW 18 30 29.83 1010 10 16 N/A
3:53 am 03:53 Clear 49 9.4 34 1.1 56 56 SW 16 26 29.85 1011 10 16 N/A
4:53 am 04:53 Clear 49 9.4 34 1.1 56 56 SW 18 30 29.87 1012 10 16 N/A
5:53 am 05:53 Mostly Cloudy 47 8.3 35 1.7 63 63 SW 13 20 29.89 1012 10 16 N/A
6:53 am 06:53 Sunny 45 7.2 35 1.7 68 68 WSW 9 15 29.92 1013 10 16 N/A
7:53 am 07:53 Sunny 50 10 37 2.8 61 61 SW 8 13 29.95 1014 10 16 N/A
8:53 am 08:53 Sunny 53 11.7 36 2.2 52 52 W 7 11 29.99 1016 10 16 N/A
9:53 am 09:53 Sunny 57 13.9 37 2.8 47 47 SSW 5 7 29.98 1015 10 16 N/A
10:53 am 10:53 Sunny 61 16.1 35 1.7 38 38 N N/A 29.98 1015 10 16 N/A
11:53 am 11:53 Sunny 65 18.3 33 0.6 31 31 N N/A 30.00 1016 10 16 N/A
12:53 pm 12:53 Sunny 67 19.4 31 -0.6 26 26 W 5 7 29.98 1015 10 16 N/A
1:53 pm 13:53 Sunny 70 21.1 32 undefined 25 25 W 8 13 29.96 1015 10 16 N/A
2:53 pm 14:53 Sunny 71 21.7 30 -1.1 22 22 W 8 13 29.95 1014 10 16 N/A
3:53 pm 15:53 Sunny 72 22.2 30 -1.1 21 21 WSW 20 31 29.93 1014 10 16 N/A
4:53 pm 16:53 Sunny 73 22.8 30 -1.1 20 20 SW 16 26 29.92 1013 10 16 N/A
5:53 pm 17:53 Sunny 74 23.3 29 -1.7 19 19 W 9 15 29.91 1013 10 16 N/A
6:53 pm 18:53 Sunny 74 23.3 29 -1.7 19 19 W 12 19 29.89 1012 10 16 N/A
7:53 pm 19:53 Sunny 66 18.9 31 -0.6 27 27 WSW 6 9 29.90 1013 10 16 N/A
8:53 pm 20:53 Mostly Clear 65 18.3 32 undefined 29 29 W 14 22 29.91 1013 10 16 N/A
9:53 pm 21:53 Clear 58 14.4 33 0.6 39 39 W 8 13 29.94 1014 10 16 N/A
10:53 pm 22:53 Cloudy 62 16.7 35 1.7 37 37 W 16 26 29.94 1014 10 16 N/A
11:53 pm 23:53 Clear 60 15.6 36 2.2 41 41 W 15 24 29.95 1014 10 16 N/A

Powered by AerisWeather